Latest Coastal Weather Observations for Gunn Point

IDD60701

Issued at 8:01 pm CST Saturday 24 June 2017 (issued every 10 minutes, with the page automatically refreshed every 10 minutes)

About coastal observations | Map of coastal stations | Coastal observations for NT | Marine services | Other Formats
Station Details ID: 014023 Name: GUNN POINT Lat: -12.25 Lon: 131.04 Height: 25.0 m
Data from the previous 72 hours. | See also: Recent months for locations in Northern Territory
Date/Time
CST
Temp
°C
Wind Pressure Rain since
9am
mm
Weather Cloud Vis
km
Sea
Height
m
Swell
Dir  Spd
kts
Gust
kts
hPa Trend Height
m
Period
s
Dir
24/08:00pm 21.0 CALM 0 0 1010.6 - 0.0 - - - - - - -
24/07:30pm 21.8 CALM 0 0 1010.1 - 0.0 - - - - - - -
24/07:00pm 23.4 CALM 0 0 1009.8 - 0.0 - - - - - - -
24/06:30pm 24.6 CALM 0 0 1009.6 - 0.0 - - - - - - -
24/06:00pm 25.8 CALM 0 0 1009.4 - 0.0 - - - - - - -
24/05:30pm 27.0 CALM 0 0 1009.4 - 0.0 - - - - - - -
24/05:00pm 27.5 CALM 0 0 1009.3 - 0.0 - - - - - - -
24/04:30pm 28.0 CALM 0 0 1009.1 - 0.0 - - - - - - -
24/04:00pm 28.8 CALM 0 0 1009.3 - 0.0 - - - - - - -
24/03:30pm 29.1 CALM 0 0 1009.5 - 0.0 - - - - - - -
24/03:00pm 29.7 CALM 0 0 1009.7 - 0.0 - - - - - - -
24/02:30pm 29.8 CALM 0 0 1010.1 - 0.0 - - - - - - -
24/02:00pm 30.0 CALM 0 0 1010.8 - 0.0 - - - - - - -
24/01:30pm 30.1 CALM 0 0 1011.2 - 0.0 - - - - - - -
24/01:00pm 29.9 CALM 0 0 1011.7 - 0.0 - - - - - - -
24/12:30pm 29.3 CALM 0 0 1012.2 - 0.0 - - - - - - -
24/12:00pm 28.6 CALM 0 0 1012.9 - 0.0 - - - - - - -
24/11:30am 28.3 CALM 0 0 1013.5 - 0.0 - - - - - - -
24/11:00am 27.5 CALM 0 0 1013.7 - 0.0 - - - - - - -
24/10:30am 27.3 CALM 0 0 1013.9 - 0.0 - - - - - - -
24/10:00am 26.2 CALM 0 0 1014.2 - 0.0 - - - - - - -
24/09:30am 25.6 CALM 0 0 1014.2 - 0.0 - - - - - - -
24/09:00am 24.4 CALM 0 0 1014.0 - - - - - - - - -
24/08:30am 23.1 CALM 0 0 1013.6 - - - - - - - - -
24/08:00am 21.4 CALM 0 0 1013.2 - - - - - - - - -
24/07:30am 20.1 CALM 0 0 1012.8 - - - - - - - - -
24/07:00am 19.6 CALM 0 0 1012.4 - - - - - - - - -
24/06:30am 19.3 CALM 0 0 1012.2 - - - - - - - - -
24/06:00am 18.4 CALM 0 0 1012.0 - - - - - - - - -
24/05:30am 18.4 CALM 0 0 1012.0 - - - - - - - - -
24/05:00am 18.8 CALM 0 0 1011.9 - - - - - - - - -
24/04:30am 19.1 CALM 0 0 1011.8 - - - - - - - - -
24/04:00am 19.3 CALM 0 0 1011.8 - - - - - - - - -
24/03:30am 19.3 CALM 0 0 1012.0 - - - - - - - - -
24/02:30am 19.6 CALM 0 0 1012.2 - - - - - - - - -
24/02:00am 19.7 CALM 0 0 1012.5 - - - - - - - - -
24/01:00am 19.5 CALM 0 0 1012.9 - - - - - - - - -
24/12:30am 19.9 CALM 0 0 1013.1 - - - - - - - - -
24/12:00am 20.1 CALM 0 0 1013.0 - - - - - - - - -
 
Date/Time
CST
Temp
°C
Wind Pressure Rain since
9am
mm
Weather Cloud Vis
km
Sea
Height
m
Swell
Dir  Spd
kts
Gust
kts
hPa Trend Height
m
Period
s
Dir
23/11:30pm 20.0 CALM 0 0 1012.9 - - - - - - - - -
23/11:00pm 20.4 CALM 0 0 1012.9 - - - - - - - - -
23/10:30pm 20.5 - - - 1012.7 - - - - - - - - -
23/10:00pm 20.9 CALM 0 0 1012.7 - 0.0 - - - - - - -
23/09:30pm 21.3 CALM 0 0 1012.5 - 0.0 - - - - - - -
23/09:00pm 21.3 CALM 0 0 1012.4 - 0.0 - - - - - - -
23/08:30pm 22.1 CALM 0 0 1012.2 - 0.0 - - - - - - -
23/08:00pm 22.4 CALM 0 0 1011.9 - 0.0 - - - - - - -
23/07:30pm 23.1 CALM 0 0 1011.5 - 0.0 - - - - - - -
23/07:00pm 24.5 CALM 0 0 1011.2 - 0.0 - - - - - - -
23/06:30pm 25.2 CALM 0 0 1011.0 - 0.0 - - - - - - -
23/06:00pm 26.1 CALM 0 0 1010.9 - 0.0 - - - - - - -
23/05:30pm 27.1 CALM 0 0 1010.5 - 0.0 - - - - - - -
23/05:00pm 27.8 CALM 0 0 1010.3 - 0.0 - - - - - - -
23/04:30pm 28.3 CALM 0 0 1010.3 - 0.0 - - - - - - -
23/04:00pm 28.7 CALM 0 0 1010.3 - 0.0 - - - - - - -
23/03:30pm 29.0 CALM 0 0 1010.4 - 0.0 - - - - - - -
23/03:00pm 30.3 CALM 0 0 1010.6 - 0.0 - - - - - - -
23/02:30pm 30.1 CALM 0 0 1011.1 - 0.0 - - - - - - -
23/02:00pm 30.7 CALM 0 0 1011.5 - 0.0 - - - - - - -
23/01:30pm 31.1 CALM 0 0 1011.9 - 0.0 - - - - - - -
23/01:00pm 30.9 CALM 0 0 1012.5 - 0.0 - - - - - - -
23/12:30pm 30.4 CALM 0 0 1013.1 - 0.0 - - - - - - -
23/12:00pm 30.4 CALM 0 0 1013.7 - 0.0 - - - - - - -
23/11:30am 29.4 CALM 0 0 1014.2 - 0.0 - - - - - - -
23/11:00am 28.2 CALM 0 0 1014.5 - 0.0 - - - - - - -
23/10:30am 28.1 CALM 0 0 1014.8 - 0.0 - - - - - - -
23/10:00am 27.4 CALM 0 0 1014.9 - 0.0 - - - - - - -
23/09:30am 25.7 CALM 0 0 1015.1 - 0.0 - - - - - - -
23/09:00am 24.8 CALM 0 0 1014.9 - 0.0 - - - - - - -
23/08:30am 23.6 CALM 0 0 1014.5 - 0.0 - - - - - - -
23/08:00am 21.0 CALM 0 0 1014.2 - 0.0 - - - - - - -
23/07:30am 18.1 CALM 0 0 1013.9 - 0.0 - - - - - - -
23/07:00am 17.8 CALM 0 0 1013.7 - 0.0 - - - - - - -
23/06:30am 18.0 CALM 0 0 1013.5 - 0.0 - - - - - - -
23/06:00am 18.2 CALM 0 0 1013.4 - 0.0 - - - - - - -
23/05:30am 18.2 CALM 0 0 1013.2 - 0.0 - - - - - - -
23/05:00am 18.1 CALM 0 0 1013.2 - 0.0 - - - - - - -
23/04:30am 18.1 CALM 0 0 1013.3 - 0.0 - - - - - - -
23/04:00am 18.1 CALM 0 0 1013.2 - 0.0 - - - - - - -
23/03:30am 18.3 CALM 0 0 1013.3 - 0.0 - - - - - - -
23/03:00am 18.4 CALM 0 0 1013.4 - 0.0 - - - - - - -
23/02:30am 18.6 CALM 0 0 1013.6 - 0.0 - - - - - - -
23/02:00am 18.8 CALM 0 1 1013.9 - 0.0 - - - - - - -
23/01:30am 19.2 CALM 0 0 1014.2 - 0.0 - - - - - - -
23/01:00am 19.2 CALM 0 0 1014.4 - 0.0 - - - - - - -
23/12:30am 19.4 CALM 0 0 1014.5 - 0.0 - - - - - - -
23/12:00am 19.5 CALM 0 0 1014.6 - 0.0 - - - - - - -
 
Date/Time
CST
Temp
°C
Wind Pressure Rain since
9am
mm
Weather Cloud Vis
km
Sea
Height
m
Swell
Dir  Spd
kts
Gust
kts
hPa Trend Height
m
Period
s
Dir
22/11:30pm 19.6 SSE 1 3 1014.6 - 0.0 - - - - - - -
22/11:00pm 19.6 CALM 0 0 1014.4 - 0.0 - - - - - - -
22/10:30pm 20.1 CALM 0 0 1014.4 - 0.0 - - - - - - -
22/10:00pm 20.1 CALM 0 0 1014.4 - 0.0 - - - - - - -
22/09:30pm 20.9 CALM 0 1 1014.3 - 0.0 - - - - - - -
22/09:00pm 21.6 NE 2 3 1014.2 - 0.0 - - - - - - -
22/08:30pm 22.2 NE 2 3 1014.0 - 0.0 - - - - - - -
22/08:00pm 22.8 NE 2 3 1013.7 - 0.0 - - - - - - -
22/07:30pm 23.1 NE 2 4 1013.4 - 0.0 - - - - - - -
22/07:00pm 24.3 NE 2 4 1013.1 - 0.0 - - - - - - -
22/06:30pm 26.1 NE 3 6 1012.6 - 0.0 - - - - - - -
22/06:00pm 27.1 NE 5 7 1012.3 - 0.0 - - - - - - -
22/05:30pm 28.5 NE 6 10 1012.0 - 0.0 - - - - - - -
22/05:00pm 29.2 NNE 6 9 1011.7 - 0.0 - - - - - - -
22/04:30pm 30.6 NE 4 7 1011.5 - 0.0 - - - - - - -
22/04:00pm 30.7 NE 7 12 1011.6 - 0.0 - - - - - - -
22/03:30pm 30.9 NNE 6 10 1011.6 - 0.0 - - - - - - -
22/03:00pm 32.1 NE 7 13 1011.7 - 0.0 - - - - - - -
22/02:30pm 31.9 ENE 7 14 1012.0 - 0.0 - - - - - - -
22/02:00pm 31.4 E 5 11 1012.5 - 0.0 - - - - - - -
22/01:30pm 31.7 ENE 7 10 1012.7 - 0.0 - - - - - - -
22/01:00pm 30.8 ENE 8 12 1013.1 - 0.0 - - - - - - -
22/12:30pm 30.7 ESE 8 12 1013.5 - 0.0 - - - - - - -
22/12:00pm 30.1 ENE 9 13 1013.9 - 0.0 - - - - - - -
22/11:30am 29.3 E 6 12 1014.2 - 0.0 - - - - - - -
22/11:00am 29.1 ENE 8 14 1014.7 - 0.0 - - - - - - -
22/10:30am 28.3 ENE 7 11 1014.9 - 0.0 - - - - - - -
22/10:00am 27.5 E 5 8 1015.2 - 0.0 - - - - - - -
22/09:30am 26.3 E 5 8 1015.3 - 0.0 - - - - - - -
22/09:00am 24.6 E 4 7 1015.2 - 0.0 - - - - - - -
22/08:30am 22.9 E 3 6 1014.9 - 0.0 - - - - - - -
22/08:00am 21.0 ESE 3 4 1014.6 - 0.0 - - - - - - -
22/07:30am 19.2 ESE 3 5 1014.5 - 0.0 - - - - - - -
22/07:00am 18.3 E 3 4 1014.2 - 0.0 - - - - - - -
22/06:30am 18.7 E 3 4 1013.8 - 0.0 - - - - - - -
22/06:00am 18.4 E 3 5 1013.6 - 0.0 - - - - - - -
22/05:30am 18.1 SE 2 3 1013.5 - 0.0 - - - - - - -
22/05:00am 18.3 E 1 2 1013.4 - 0.0 - - - - - - -
22/04:30am 18.6 ENE 2 3 1013.3 - 0.0 - - - - - - -
22/04:00am 18.5 E 2 3 1013.5 - 0.0 - - - - - - -
22/03:30am 18.6 ESE 2 2 1013.7 - 0.0 - - - - - - -
22/03:00am 18.8 CALM 0 1 1013.6 - 0.0 - - - - - - -
22/02:30am 19.1 CALM 0 1 1013.8 - 0.0 - - - - - - -
22/02:00am 19.5 CALM 0 0 1013.9 - 0.0 - - - - - - -
22/01:30am 19.7 CALM 0 0 1014.2 - 0.0 - - - - - - -
22/01:00am 19.8 CALM 0 0 1014.3 - 0.0 - - - - - - -
22/12:30am 20.0 CALM 0 0 1014.3 - 0.0 - - - - - - -
22/12:00am 20.0 CALM 0 1 1014.4 - 0.0 - - - - - - -
 
Date/Time
CST
Temp
°C
Wind Pressure Rain since
9am
mm
Weather Cloud Vis
km
Sea
Height
m
Swell
Dir  Spd
kts
Gust
kts
hPa Trend Height
m
Period
s
Dir
21/11:30pm 20.2 CALM 0 0 1014.5 - 0.0 - - - - - - -
21/11:00pm 20.6 SSE 1 1 1014.3 - 0.0 - - - - - - -
21/10:30pm 20.6 SSE 2 3 1014.2 - 0.0 - - - - - - -
21/10:00pm 20.9 CALM 0 0 1014.1 - 0.0 - - - - - - -
21/09:30pm 21.0 CALM 0 0 1013.8 - 0.0 - - - - - - -
21/09:00pm 21.4 CALM 0 0 1013.5 - 0.0 - - - - - - -
21/08:30pm 21.8 ENE 1 1 1013.1 - 0.0 - - - - - - -

Other Formats:

Comma delimited format used in spreadsheet applications
http://www.bom.gov.au/fwo/IDD60701/IDD60701.99501.axf

JavaScript Object Notation format (JSON) in row-major order
http://www.bom.gov.au/fwo/IDD60701/IDD60701.99501.json